Back to catalog

CZ-6A DEB

AlivePO
NORAD 60714·DEBRIS·🇨🇳 China

Launched Aug 6, 2024 from Taiyuan Satellite Launch Center

Loading…

Next Passes (next 24 hours)

TLE

FreshSource: Space-Track

Epoch: Sep 14, 2026, 06:53 UTC

1 60714U 24140DT  26257.28706165  .00001142  00000-0  26352-3 0  9995
2 60714  89.0368 264.0191 0105423 346.9751  12.8737 14.51245965110616

Track CZ-6A DEB in real time with AllMySat

Download on the App Store